EHI
0 1 2 1 0 1 0 1 3 4 4 4 3 1 0 0 0 0 0 0 0 0 0 0 0 0 0 0 0 0 0 0 0 0 0 0 0 0 0 0 0 0 0
0 1 2 1 0 1 1 2 4 5 5 4 4 3 1 0 0 0 0 0 0 0 0 0 0 0 0 0 0 0 0 0 0 0 0 0 0 0 0 0 0 0 0
1 2 3 2 1 2 3 3 5 6 6 6 5 4 3 1 0 0 0 0 0 0 0 0 0 0 0 0 0 0 0 0 0 0 0 0 0 0 0 0 0 0 0
0 2 4 4 3 3 4 4 5 5 6 5 4 3 2 1 0 0 0 0 0 0 0 0 0 0 0 0 0 0 0 0 0 0 0 0 0 0 0 0 0 0 0
0 2 5 6 4 3 4 3 2 3 4 3 2 1 1 0 0 0 0 0 0 0 0 0 0 0 0 0 0 0 0 0 0 0 0 0 0 0 0 0 0 0 0
0 2 5 6 5 4 3 3 1 1 3 3 2 1 0 0 0 0 0 0 0 0 0 0 0 0 0 0 0 0 0 0 0 0 0 0 0 0 0 0 0 0 0
1 3 6 7 6 5 4 4 3 2 3 3 3 2 1 1 1 1 0 0 0 0 0 0 0 0 0 0 0 0 0 0 0 0 0 0 0 0 0 0 0 0 0
2 3 5 6 7 6 6 6 5 3 3 3 3 3 3 2 2 2 1 0 0 0 0 0 0 0 0 0 0 0 0 0 0 0 0 0 0 0 0 0 0 0 0
2 2 2 4 5 6 6 6 6 4 3 3 3 3 3 3 3 2 1 0 0 0 0 0 0 0 0 0 0 0 0 0 0 0 0 0 0 0 0 0 0 0 0
2 1 0 2 3 3 4 6 6 4 3 3 3 3 3 3 1 1 0 0 0 1 0 0 0 0 0 0 0 0 0 0 0 0 0 0 0 0 0 0 0 0 0
2 1 0 0 1 1 3 5 5 4 3 3 3 3 3 2 1 0 0 0 0 0 0 0 0 0 0 0 0 0 0 0 0 0 0 0 0 0 0 0 0 0 0
3 2 1 0 0 0 2 4 4 3 3 3 3 3 3 2 1 0 0 0 0 0 0 0 0 0 0 0 0 0 0 0 0 0 0 0 0 0 0 0 0 0 0
4 3 3 3 2 2 2 3 4 4 4 3 2 2 3 3 2 1 1 0 0 0 0 0 0 0 0 0 0 0 0 0 0 0 0 0 0 0 0 0 0 0 0
5 5 6 7 8 7 6 6 6 6 5 4 3 3 3 3 3 2 1 0 0 0 0 0 0 0 0 0 0 0 0 0 0 0 0 0 0 0 0 0 0 0 0
7 8 9 11 12 12 10 8 7 6 5 4 4 3 3 3 3 3 1 0 0 0 0 0 0 0 0 0 0 0 0 0 0 0 0 0 0 0 0 0 0 0 0
11 11 12 13 13 13 11 8 6 5 4 4 4 4 3 3 3 3 2 0 0 0 0 0 0 0 0 0 0 0 0 0 0 0 0 0 0 0 0 0 0 0 0
14 16 15 12 12 11 9 7 6 5 4 4 4 4 3 3 3 3 2 1 0 0 0 0 0 0 0 0 0 0 0 0 0 0 0 0 0 0 0 0 0 0 0
18 22 22 16 12 10 8 8 7 5 4 4 4 3 3 3 2 1 1 0 0 0 0 0 0 0 0 0 0 0 0 0 0 0 0 0 0 0 0 1 0 0 0
25 28 29 24 18 12 9 9 8 5 4 4 4 3 3 2 1 0 0 0 0 0 0 0 0 0 0 0 0 0 0 0 0 0 0 0 0 0 0 1 1 0 0
33 33 32 29 25 18 12 10 8 6 6 6 4 2 1 1 0 0 0 0 0 0 0 0 0 0 0 0 0 0 0 0 0 0 0 0 0 0 0 1 2 2 1
39 38 36 33 30 25 18 12 8 7 7 7 4 1 0 0 0 0 0 0 0 0 0 0 0 0 0 0 0 0 0 0 0 0 0 0 0 0 0 1 2 2 3
44 43 41 37 34 29 23 16 11 9 8 6 3 1 0 0 0 0 0 0 0 0 0 0 0 0 0 0 0 0 0 0 0 0 0 0 0 0 0 0 1 1 1
43 41 38 36 33 28 24 17 13 11 9 6 3 1 0 0 0 0 0 0 0 0 0 0 0 0 0 0 0 0 0 0 0 0 0 0 0 1 0 0 0 0 0
35 35 36 34 31 26 21 16 13 12 8 5 3 2 1 1 1 0 0 0 0 0 0 0 0 0 0 1 1 1 0 0 0 0 0 0 0 0 0 0 1 0 0
28 31 35 35 31 26 21 18 15 11 8 6 5 4 2 2 2 1 0 1 0 0 0 1 1 1 1 2 2 3 1 0 1 1 1 0 0 0 0 1 1 1 1
28 30 33 34 32 27 23 20 17 12 9 8 7 6 4 3 3 1 1 2 1 0 1 2 2 1 2 3 4 4 2 1 2 2 2 1 0 0 1 1 2 3 3
Wind_Speed
9 12 12 10 11 12 12 13 13 13 13 13 13 13 12 12 12 12 13 13 13 13 13 14 14 14 14 13 13 13 13 13 13 14 14 14 14 14 13 13 12 13 15
12 13 12 11 11 12 12 12 12 13 13 12 12 12 12 12 12 12 12 13 13 13 14 14 13 13 13 13 13 13 13 12 13 13 14 14 13 13 12 10 9 12 14
12 13 13 10 11 11 12 12 12 12 12 12 12 12 12 12 12 12 12 13 13 13 13 13 13 13 13 13 13 13 13 12 12 11 10 10 12 12 12 13 14 14 14
12 12 12 12 11 11 11 11 11 12 12 11 11 11 11 11 12 12 13 13 13 13 13 13 13 13 13 13 13 13 13 12 10 8 7 9 11 13 12 12 13 13 13
11 12 13 11 11 11 11 11 11 11 11 11 11 11 11 12 12 12 13 13 13 13 13 12 12 13 13 13 13 13 12 11 7 5 9 9 10 12 12 12 12 13 13
12 12 14 10 11 11 10 10 10 10 11 11 11 11 11 12 12 12 12 12 12 12 12 12 12 12 12 13 13 12 11 8 7 8 8 8 9 11 11 12 12 12 12
11 11 14 10 10 10 10 9 10 10 10 10 10 11 11 11 11 11 12 12 12 12 12 12 12 12 12 12 12 11 9 5 6 8 7 7 9 10 11 11 12 12 12
10 11 13 11 10 9 9 9 9 9 9 10 10 10 10 11 11 11 11 11 11 11 11 11 11 11 11 11 11 10 7 3 7 7 7 9 10 9 11 11 11 11 12
9 10 10 12 11 10 9 8 9 9 9 9 9 10 10 10 10 10 10 10 11 11 11 10 10 10 11 11 10 9 5 1 5 6 7 8 10 10 11 11 11 10 11
7 8 9 8 8 9 10 9 8 8 8 9 9 9 10 10 10 9 10 10 10 10 10 10 10 10 10 10 9 8 5 4 5 6 6 9 9 9 9 10 10 10 10
7 5 6 8 7 6 7 10 9 9 8 8 9 8 6 6 8 8 11 10 10 10 10 10 10 9 9 10 8 6 6 2 5 4 6 11 9 8 9 9 9 9 9
9 8 5 5 6 6 5 7 5 5 6 4 5 6 4 4 4 7 10 8 9 9 9 8 8 9 6 6 8 7 2 4 4 4 7 9 8 8 8 8 8 8 8
9 8 7 5 4 4 4 4 3 3 4 4 5 4 3 4 4 5 5 7 7 8 6 8 7 4 3 3 2 3 2 3 2 4 8 8 7 7 8 8 8 8 8
7 7 7 6 4 3 2 3 3 3 3 3 5 4 4 2 2 3 2 4 4 3 3 3 2 3 3 3 3 3 2 1 2 3 7 8 6 6 7 7 7 8 8
7 7 7 6 5 4 3 2 3 3 3 4 3 3 3 3 3 3 2 1 2 3 4 3 2 3 3 3 2 3 2 2 2 2 6 8 6 6 6 7 8 8 7
7 7 7 7 7 6 4 3 3 3 3 2 3 3 4 3 3 3 3 2 2 2 2 2 3 3 2 2 2 2 2 3 3 2 4 8 8 6 6 7 7 8 8
7 7 8 8 7 6 6 5 4 3 4 3 3 3 4 4 3 3 3 3 2 2 2 2 2 2 2 3 2 2 2 2 2 3 3 3 7 9 8 7 7 8 8
8 8 8 7 7 7 5 4 3 3 3 2 3 3 4 3 4 3 3 2 2 2 2 2 3 2 2 2 2 2 2 2 3 4 4 4 3 5 9 10 8 9 9
7 7 7 7 7 7 6 5 4 3 3 3 3 3 4 5 5 4 3 2 3 2 3 3 3 2 2 2 3 3 3 3 4 4 4 4 4 4 4 9 10 9 10
7 6 6 6 6 6 5 4 3 4 4 3 3 4 4 5 5 4 4 4 4 3 3 2 2 2 2 3 3 2 3 3 3 4 5 5 4 5 5 5 7 9 12
7 7 7 6 6 6 5 5 4 4 4 4 4 5 5 5 5 4 4 3 4 3 3 4 4 4 4 3 3 3 3 4 4 4 4 4 5 5 5 5 5 4 6
7 7 7 7 7 7 5 4 3 2 3 4 4 4 5 6 6 5 5 4 4 3 5 5 5 4 3 3 3 3 3 3 4 4 4 5 4 4 5 6 5 5 5
7 7 6 6 6 7 6 4 3 3 3 4 4 4 6 6 6 5 5 5 4 5 5 5 5 6 4 4 4 3 3 2 1 3 3 3 3 3 4 3 5 5 6
7 7 6 6 7 6 6 5 5 4 4 4 3 3 4 5 6 6 6 5 5 5 4 6 6 5 5 5 4 4 5 3 3 2 3 3 3 3 3 3 3 3 4
6 6 6 6 6 6 6 6 6 5 4 3 4 4 4 4 5 5 5 5 6 6 5 5 4 6 5 5 4 4 4 4 6 4 3 2 2 2 2 2 2 2 2
5 5 6 6 6 6 6 6 6 5 4 4 4 4 4 3 4 5 5 5 6 5 5 5 5 7 6 6 5 4 4 4 4 4 4 4 3 2 1 1 1 1 1
Wind_Direction
121 110 110 108 105 104 106 106 106 107 108 108 109 108 107 107 106 106 104 103 105 104 103 102 102 103 103 105 107 108 107 108 111 112 112 112 114 115 117 121 126 109 110
121 115 115 112 109 107 107 106 107 108 109 109 109 108 108 108 107 106 106 105 104 104 103 102 102 102 102 103 105 107 106 108 112 114 117 116 114 112 112 108 96 107 116
123 121 125 114 112 109 108 108 108 108 108 108 108 109 110 110 109 109 108 107 106 104 103 102 102 103 103 102 103 105 106 107 110 122 137 125 116 113 109 105 106 115 115
126 126 118 116 115 112 110 109 108 108 107 107 108 108 107 108 109 109 107 106 107 106 104 103 105 104 102 101 103 103 104 107 115 148 130 113 116 115 115 114 116 116 116
122 119 113 122 117 115 112 110 109 108 107 107 106 106 106 107 107 107 107 106 107 107 106 105 106 105 103 102 102 103 105 110 130 137 99 103 106 118 120 120 120 118 119
130 128 119 126 119 117 114 112 110 108 109 108 106 105 105 105 105 106 105 106 105 104 105 105 106 108 107 107 106 106 110 127 155 101 98 106 109 120 124 124 122 121 119
130 123 123 126 122 119 117 115 112 110 108 107 106 104 105 105 106 106 105 107 107 105 104 106 109 109 108 109 109 110 115 136 109 104 107 103 102 116 124 124 122 121 121
130 126 123 128 124 123 120 117 113 110 109 108 107 107 105 104 105 105 106 109 108 107 108 108 109 110 111 111 111 112 123 170 116 109 106 99 100 116 123 122 122 123 124
133 132 135 142 138 132 122 119 115 111 110 110 110 110 109 107 106 107 108 110 111 111 111 110 109 112 115 115 115 115 113 311 113 110 107 100 107 115 121 124 127 125 124
137 137 139 142 139 147 139 127 121 117 115 114 112 112 118 120 117 122 122 111 113 113 112 112 111 113 117 118 119 123 144 210 113 116 107 107 116 122 125 127 127 126 126
148 151 148 141 144 148 138 134 142 136 129 140 130 131 156 140 128 137 103 112 113 113 114 117 117 118 128 127 129 149 191 147 111 100 97 109 129 131 130 133 134 135 135
159 159 156 154 152 154 140 139 152 148 139 144 129 140 136 115 108 108 111 113 114 119 123 122 130 154 178 141 146 186 170 121 125 120 105 120 136 140 140 143 144 144 143
160 162 162 158 157 153 146 150 139 133 133 139 127 132 124 137 138 134 138 140 141 155 143 145 173 158 124 100 126 141 110 127 119 116 114 132 145 149 150 154 155 156 156
160 162 162 157 163 174 151 142 160 154 149 143 140 164 148 141 141 126 144 140 154 139 128 142 129 114 118 127 121 117 132 135 114 107 119 140 155 162 162 165 167 166 165
169 169 167 168 174 175 167 191 160 162 163 149 149 156 163 162 153 142 133 143 150 135 150 148 134 129 140 144 144 131 124 103 120 142 126 147 164 174 176 176 176 176 178
178 175 176 181 186 184 182 190 175 177 169 161 167 163 190 175 155 166 161 167 160 164 126 155 149 163 162 132 147 136 160 158 148 176 153 152 169 180 184 185 185 187 189
184 184 186 187 189 190 192 196 190 192 177 178 162 176 196 190 169 192 172 181 168 163 155 191 171 184 186 174 164 162 173 189 163 184 190 173 167 177 189 194 197 198 198
185 186 194 195 183 189 199 207 205 198 190 190 182 187 201 198 195 211 197 181 174 193 190 187 208 204 187 195 183 197 182 185 193 201 203 197 196 179 180 191 203 208 210
185 186 192 200 191 194 198 200 205 201 213 217 203 209 201 208 202 213 208 181 207 203 211 220 186 213 197 202 199 193 206 208 198 205 208 209 201 210 198 172 194 210 217
182 185 191 195 191 194 193 196 205 214 213 216 216 214 214 214 208 216 206 197 224 212 219 226 225 221 230 224 234 200 219 215 215 209 217 208 203 211 217 202 193 198 210
179 185 189 188 183 192 192 195 197 208 217 219 219 212 213 220 212 222 231 190 229 222 228 224 220 209 221 218 229 221 216 215 217 217 225 230 212 212 218 219 228 219 195
182 186 188 190 188 198 193 191 198 208 221 222 227 214 218 216 215 212 220 222 216 228 226 229 228 240 230 213 238 245 231 201 206 214 210 214 226 219 220 220 223 224 243
183 187 191 190 190 198 193 191 194 198 221 217 211 212 218 220 219 228 218 232 227 234 227 229 227 229 236 228 233 253 262 241 195 191 203 212 216 232 238 240 232 224 228
181 182 186 185 188 191 191 200 206 213 215 219 219 213 213 222 224 218 225 228 236 242 237 237 227 234 238 242 227 238 262 297 270 244 211 192 196 216 238 251 243 224 228
175 177 178 181 186 189 194 201 214 222 222 217 218 214 226 217 221 223 227 231 231 239 239 246 239 239 237 244 241 235 236 235 243 254 258 245 223 216 213 234 255 261 252
167 173 175 179 186 189 196 202 215 221 228 228 226 228 223 216 220 222 228 230 232 235 239 241 238 232 243 251 251 245 242 241 239 243 257 252 240 227 209 259 255 259 265